Estherville, IA

8:22 AM CST on December 12, 2017 (GMT -0600)
Estherville Municipal

Weather History for KEST - March, 2014

Change the Weather History Date:

Wednesday, March 5, 2014

  Actual Average Record
Temperature  
Mean Temperature 11 °F 28 °F  
Max Temperature 18 °F 36 °F 62 °F (1968)
Min Temperature 4 °F 19 °F -18 °F (1960)
Degree Days  
Heating Degree Days 54 37  
Month to date heating degree days 314 191  
Since 1 July heating degree days 6805 6106  
Cooling Degree Days 0 0  
Month to date cooling degree days 0 0  
Year to date cooling degree days 0 0  
Moisture  
Dew Point 12 °F    
Average Humidity 92    
Maximum Humidity 100    
Minimum Humidity 84    
Precipitation  
Precipitation T in 0.03 in 0.60 in (1962)
Month to date precipitation 0.01 0.12  
Sea Level Pressure  
Sea Level Pressure 30.35 in    
Wind  
Wind Speed 12 mph (East)    
Max Wind Speed 20 mph    
Max Gust Speed 23 mph    
Visibility 5 miles    
Events Snow    
T = Trace of Precipitation, MM = Missing Value Source: NWS Daily Summary

Daily Weather History Graph

Daily Weather History Graph

Search for Another Location

Airport or City:

Trip Planner

Search our weather history database for the weather conditions in past years. The results will help you decide how hot, cold, wet, or windy it might be!

Date:

Astronomy

Mar. 05, 2014 Rise Set
Actual Time 6:48 AM CST 6:13 PM CST
Civil Twilight 6:19 AM CST 6:41 PM CST
Nautical Twilight 5:46 AM CST 7:14 PM CST
Astronomical Twilight 5:13 AM CST 7:47 PM CST
Moon 9:06 AM CST (3/5) 11:32 PM CST (3/5)
Length of Visible Light 12h 21m
Length of Day
11h 24m
Waxing Crescent, 23% of the Moon is Illuminated
Mar 5
Waxing Crescent
Mar 8
First Quarter
Mar 16
Full
Mar 23
Last Quarter
Mar 30
New

Hourly Weather History & Observations

Time (CST) Temp. Windchill Dew Point Humidity Pressure Visibility Wind Dir Wind Speed Gust Speed Precip Events Conditions
12:39 AM 15.1 °F 1.8 °F 12.9 °F 91% 30.19 in 1.5 mi ENE 11.5 mph - 0.00 in Snow Light Snow
12:52 AM 15.1 °F 1.1 °F 12.9 °F 91% 30.27 in 1.5 mi ENE 12.7 mph - 0.00 in Snow Light Snow
1:28 AM 15.1 °F -0.1 °F 12.9 °F 91% 30.19 in 2.5 mi ENE 15.0 mph - 0.00 in Snow Light Snow
1:37 AM 15.1 °F 1.1 °F 12.9 °F 91% 30.20 in 4.0 mi ENE 12.7 mph - 0.00 in Snow Light Snow
1:52 AM 15.1 °F 1.1 °F 12.9 °F 91% 30.29 in 6.0 mi NE 12.7 mph - 0.00 in   Overcast
2:52 AM 15.1 °F 1.8 °F 12.9 °F 91% 30.30 in 6.0 mi NE 11.5 mph - N/A   Overcast
3:52 AM 14.0 °F 0.5 °F 12.0 °F 92% 30.30 in 7.0 mi ENE 11.5 mph - N/A   Overcast
4:52 AM 12.9 °F -0.2 °F 10.9 °F 92% 30.32 in 7.0 mi ENE 10.4 mph - N/A   Mostly Cloudy
5:52 AM 8.1 °F -6.2 °F 7.0 °F 95% 30.33 in 7.0 mi NE 10.4 mph - N/A   Partly Cloudy
6:52 AM 3.9 °F -10.4 °F 3.9 °F 100% 30.37 in 6.0 mi NE 9.2 mph - N/A   Clear
7:52 AM 6.1 °F -9.5 °F 5.0 °F 95% 30.38 in 5.0 mi NE 11.5 mph - N/A   Clear
8:52 AM 10.0 °F -2.9 °F 9.0 °F 95% 30.41 in 6.0 mi NNE 9.2 mph - N/A   Mostly Cloudy
9:16 AM 10.9 °F -1.8 °F 9.0 °F 92% 30.33 in 6.0 mi NNE 9.2 mph - N/A   Scattered Clouds
9:24 AM 12.0 °F -0.4 °F 10.0 °F 92% 30.34 in 5.0 mi NE 9.2 mph - N/A   Mostly Cloudy
9:52 AM 12.9 °F 0.7 °F 10.0 °F 88% 30.43 in 5.0 mi NE 9.2 mph - N/A   Overcast
10:18 AM 14.0 °F 1.2 °F 10.9 °F 88% 30.35 in 7.0 mi ENE 10.4 mph - N/A   Scattered Clouds
10:52 AM 14.0 °F 0.5 °F 10.9 °F 88% 30.43 in 8.0 mi ENE 11.5 mph - N/A   Clear
11:46 AM 15.8 °F 2.1 °F 12.2 °F 86% 30.35 in 6.0 mi East 12.7 mph - N/A   Mostly Cloudy
11:52 AM 16.0 °F 3.6 °F 12.9 °F 88% 30.43 in 6.0 mi East 10.4 mph - N/A   Mostly Cloudy
12:29 PM 16.0 °F 2.3 °F 12.9 °F 88% 30.34 in 8.0 mi ESE 12.7 mph - N/A   Scattered Clouds
12:52 PM 17.1 °F 4.3 °F 12.9 °F 84% 30.41 in 7.0 mi ESE 11.5 mph - N/A   Partly Cloudy
1:13 PM 17.1 °F 3.6 °F 14.0 °F 88% 30.32 in 4.0 mi ESE 12.7 mph - N/A   Mostly Cloudy
1:52 PM 18.0 °F 4.8 °F 14.0 °F 84% 30.39 in 7.0 mi SE 12.7 mph - N/A   Mostly Cloudy
2:52 PM 18.0 °F 5.4 °F 14.0 °F 84% 30.39 in 4.0 mi ESE 11.5 mph - N/A   Overcast
3:52 PM 18.0 °F 6.1 °F 15.1 °F 88% 30.40 in 5.0 mi ESE 10.4 mph - N/A   Overcast
4:52 PM 18.0 °F 6.1 °F 14.0 °F 84% 30.40 in 2.0 mi ESE 10.4 mph - N/A   Overcast
5:43 PM 17.1 °F 3.0 °F 14.0 °F 88% 30.30 in 3.0 mi ESE 13.8 mph - N/A   Overcast
5:52 PM 17.1 °F 3.6 °F 14.0 °F 88% 30.39 in 3.0 mi ESE 12.7 mph - N/A   Overcast
5:59 PM 17.1 °F 3.6 °F 14.0 °F 88% 30.31 in 3.0 mi ESE 12.7 mph - N/A   Overcast
6:52 PM 17.1 °F 4.3 °F 14.0 °F 88% 30.40 in 6.0 mi SE 11.5 mph - N/A   Overcast
7:52 PM 17.1 °F 2.5 °F 14.0 °F 88% 30.38 in 6.0 mi SE 15.0 mph - N/A   Overcast
8:52 PM 17.1 °F 2.5 °F 14.0 °F 88% 30.37 in 7.0 mi SSE 15.0 mph - N/A   Overcast
9:52 PM 17.1 °F 2.5 °F 15.1 °F 92% 30.38 in 7.0 mi SSE 15.0 mph - N/A   Overcast
10:52 PM 17.1 °F 1.5 °F 15.1 °F 92% 30.35 in 7.0 mi SSE 17.3 mph - N/A   Overcast
11:52 PM 16.0 °F 3.6 °F 15.1 °F 96% 30.37 in 7.0 mi South 10.4 mph - N/A   Overcast